Regional Weather Roundup
Issued by NWS

Home | Current Version | Previous Version | Graphics & Text | Print | Product List | Glossary On
Versions: 1 2 3 4 5 6 7 8 9 10 11 12 13 14 15 16 17 18 19 20 21 22 23 24 25 26 27 28
000
ASUS45 KSLC 220110
RWRUT

UTAH REGIONAL WEATHER ROUNDUP
NATIONAL WEATHER SERVICE SALT LAKE CITY UT
700 PM MDT SUN MAY 21 2017

UTZ001>011-023>025-220200-

NORTHERN UTAH

CITY           SKY/WX    TMP DP  RH WIND       PRES   REMARKS
BRIGHAM CITY   MOSUNNY   67  41  38 CALM      30.17F
HILL AFB       SUNNY     62  46  55 W9        30.19S
LOGAN          MOSUNNY   68  41  37 N8        30.17S
OGDEN          MOSUNNY   63  45  51 NW8       30.18S
SALT LAKE CITY MOSUNNY   65  45  48 NW5       30.17S
TOOELE VALLEY  SUNNY     61  46  59 N5        30.20S
WENDOVER       SUNNY     70  40  33 E13       30.18S
HEBER CITY     PTSUNNY   61  39  44 N3        30.19S
WEST JORDAN    SUNNY     64  53  65 NW10      30.20R

$$

UTZ011>015-024>027-220200-

CENTRAL/NORTHEAST UTAH

CITY           SKY/WX    TMP DP  RH WIND       PRES   REMARKS
PROVO AIRPORT  SUNNY     61  41  47 W5        30.19F
MOAB/CANYONLAN MOSUNNY   66  35  31 W13       30.12S
DELTA          SUNNY     68  34  28 N14G20    30.15S
PRICE          MOSUNNY   56  43  61 E9        30.20F
RICHFIELD      PTSUNNY   63  39  42 NE16      30.18S
ROOSEVELT      CLOUDY    63  36  36 NW15      30.20S
VERNAL         CLOUDY    60  37  42 CALM      30.17R

$$

UTZ013>016-019>022-027-220200-

SOUTHERN UTAH

CITY           SKY/WX    TMP DP  RH WIND       PRES   REMARKS
BRYCE CANYON   CLOUDY    57  32  38 W16       30.26F
CEDAR CITY     CLOUDY    67  35  30 NE12      30.15S
MILFORD        CLOUDY    74  35  24 NE14      30.11S
ST GEORGE      MOCLDY    84  34  16 N15       29.95R
HANKSVILLE     MOSUNNY   64  37  36 CALM      30.16R
KANAB          SUNNY     77  30  18 N10       30.11S
BLANDING       CLOUDY    60  35  40 NW22G28   30.23R

$$

REGIONAL REPORTS     COLORADO/ARIZONA

CITY           SKY/WX    TMP DP  RH WIND       PRES   REMARKS
CRAIG, CO      CLOUDY    52  38  58 N18       30.21R
GRAND JUNCTION MOSUNNY   65  35  33 NW12      30.12R
RIFLE, CO      CLOUDY    63  34  33 NW20G26   30.14R
MONTROSE, CO   CLOUDY    65  31  28 NW6       30.13S
CORTEZ, CO     CLOUDY    68  26  20 W8        30.13S
COLORADO CITY    N/A     81  30  16 N9G16     30.10S
PAGE, AZ       CLOUDY    79  29  16 NW16G26   30.04R
GRAND CANYON   MOSUNNY   71  25  17 NW6       30.18S
KINGMAN, AZ    SUNNY     90  26  10 NW9       29.95F
FLAGSTAFF, AZ  MOSUNNY   72  16  12 MISG      30.18S

$$

REGIONAL REPORTS    NEVADA/IDAHO/WYOMING

CITY           SKY/WX    TMP DP  RH WIND       PRES   REMARKS
LAS VEGAS, NV  MOSUNNY   95  18   6 NW7       29.84S
ELY, NY        SUNNY     69  27  20 N13       30.18S
ELKO, NV       SUNNY     69  35  28 SE6       30.18S
POCATELLO, ID  MOSUNNY   70  31  23 NE9       30.18F
BURLEY, ID       N/A     68  44  42 NW8       30.17F
FORT BRIDGER,    N/A     58  37  44 N15G21    30.26S
EVANSTON, WY   CLOUDY    57  35  43 N18       30.24S
ROCK SPRINGS,  CLOUDY    53  35  50 E6        30.25R
KEMMERER, WY     N/A     55  32  41 NW15      30.26R

$$




USA.gov is the U.S. government's official web portal to all federal, state and local government web resources and services.